SB KEPS @ AMSAT $ORB11279.N 2Line Orbital Elements 11279.AMSAT
HR AMSAT ORBITAL ELEMENTS FOR AMATEUR SATELLITES IN NASA FORMAT FROM WA5QGD FORT WORTH,TX October 6, 2011 Send Subscribe/unsubscribe to KEPS at http://www.amsat.org/mailman/listinfo/keps BID: ORB11279.N
DECODE 2-LINE ELSETS WITH THE FOLLOWING KEY: 1 AAAAAU 00 0 0 BBBBB.BBBBBBBB .CCCCCCCC 00000-0 00000-0 0 DDDZ 2 AAAAA EEE.EEEE FFF.FFFF GGGGGGG HHH.HHHH III.IIII JJ.JJJJJJJJKKKKKZ KEY: A-CATALOGNUM B-EPOCHTIME C-DECAY D-ELSETNUM E-INCLINATION F-RAAN G-ECCENTRICITY H-ARGPERIGEE I-MNANOM J-MNMOTION K-ORBITNUM Z-CHECKSUM
TO ALL RADIO AMATEURS BT
AO-07 1 07530U 74089B 11278.52775358 -.00000027 00000-0 10000-3 0 01990 2 07530 101.3966 280.7286 0012110 062.7431 297.4872 12.53584452688015 FO-29 1 24278U 96046B 11278.90798306 .00000068 00000-0 10734-3 0 06774 2 24278 098.5645 048.1996 0350584 330.5185 027.6577 13.52965344747430 SO-33 1 25509U 98061B 11278.58772917 .00000303 00000-0 48700-4 0 709 2 25509 031.4323 339.8704 0353650 127.2008 236.1440 14.28454706676072 RS-22 1 27939U 03042A 11279.72557411 .00000702 00000-0 14346-3 0 6932 2 27939 097.8328 128.3224 0013530 357.2418 002.8715 14.63669746428653 VO-52 1 28650U 05017B 11279.75883511 .00001641 00000-0 21077-3 0 9174 2 28650 097.6320 317.8376 0027222 153.6973 206.5623 14.82232914347277 SO-67 1 35870U 09049F 11279.80028191 .00004448 00000-0 20190-3 0 2879 2 35870 097.2695 319.3934 0002766 029.7033 082.5310 15.21291273113906 HO-68 1 36122U 09072B 11279.66614101 -.00000044 00000-0 00000 0 0 8062 2 36122 100.4028 338.7274 0007399 332.7934 027.2797 13.16288656 86907 UO-11 1 14781U 84021B 11279.89491184 .00000658 00000-0 93822-4 0 6725 2 14781 097.9916 336.1776 0009685 132.0404 228.1626 14.80064686482317 AO-16 1 20439U 90005D 11279.89320219 .00000162 00000-0 76079-4 0 2979 2 20439 098.3956 225.8394 0010662 187.8889 172.2126 14.31947891133608 LO-19 1 20442U 90005G 11279.88537943 .00000297 00000-0 12588-3 0 2159 2 20442 098.3604 229.7602 0011794 180.9550 179.1608 14.32172080133784 AO-27 1 22825U 93061C 11278.89261896 .00000182 00000-0 88243-4 0 09413 2 22825 098.5431 221.1136 0007840 314.9649 045.0895 14.29370537940007 IO-26 1 22826U 93061D 11279.85152701 .00000168 00000-0 82653-4 0 6763 2 22826 098.5361 222.4943 0008373 306.5710 053.4699 14.29635607940263 GO-32 1 25397U 98043D 11279.76512285 .00000150 00000-0 84583-4 0 5978 2 25397 098.3371 266.4158 0000977 359.4179 000.7000 14.23223276687833 NO-44 1 26931U 01043C 11279.48246345 .00000027 00000-0 42642-4 0 8669 2 26931 067.0518 056.7429 0004890 259.2213 100.8325 14.29687298522833 SO-50 1 27607U 02058C 11279.70391495 .00000738 00000-0 13361-3 0 5839 2 27607 064.5598 348.7774 0081098 297.8535 061.4364 14.71850911472505 CO-55 1 27844U 03031E 11278.52650952 .00000246 00000-0 13420-3 0 02151 2 27844 098.7075 285.6354 0008920 240.8030 119.2252 14.20855219428588 CO-57 1 27848U 03031J 11278.55763481 .00000206 00000-0 11584-3 0 01626 2 27848 098.7139 284.8935 0008955 244.8250 115.1999 14.20629404428538 AO-51 1 28375U 04025K 11278.94969477 .00000184 00000-0 67678-4 0 00903 2 28375 098.1114 251.6489 0084742 093.8962 267.1944 14.40788986382010 CP3 1 31129U 07012N 11278.71127944 .00000583 00000-0 14372-3 0 09873 2 31129 097.8936 296.5182 0101478 196.7032 163.0756 14.52589766236880 CO-65 1 32785U 08021C 11278.19362544 .00001198 00000-0 15672-3 0 01174 2 32785 097.8370 339.9193 0014895 173.7437 186.4021 14.82174730185831 PRISM 1 33493U 09002B 11279.77755406 .00003170 00000-0 40441-3 0 273 2 33493 098.1396 050.1291 0020495 042.7209 317.5606 14.82069858146046 SOHLA-1 1 33496U 09002E 11278.95985876 .00000581 00000-0 10584-3 0 05566 2 33496 098.0892 027.7232 0007264 125.3398 234.8489 14.69681158144754 TISAT-1 1 36799U 10035E 11279.84367949 .00001917 00000-0 25532-3 0 2994 2 36799 098.0911 349.1497 0013931 276.5147 083.4477 14.80799805 66837 STUDSAT 1 36801U 10035G 11278.82195060 .00005083 00000-0 65855-3 0 02842 2 36801 098.0954 348.0705 0012589 269.3663 090.6106 14.81229467066673 OOREOS 1 37224U 10062C 11153.29456974 .00000492 00000-0 77478-4 0 01796 2 37224 071.9726 071.8135 0020315 307.7637 052.1684 14.77036357028673 FO-69 1 37227U 0 11278.00905673 .00000569 00000-0 89062-4 0 01520 2 37227 071.9695 157.1036 0015389 077.7487 282.5384 14.76673552025532 NANOSALD 1 37361U 0 11242.25215765 .00180112 00000-0 75811-2 0 03512 2 37361 071.9735 221.4469 0025730 245.3422 114.7284 15.22200108033319 FO-70 1 37380U 0 11278.04019690 .00000544 00000-0 85946-4 0 02889 2 37380 071.9728 157.2762 0015951 073.5757 286.7149 14.76437049047072 NOAA-10 1 16969U 86073A 11278.95798505 .00000118 00000-0 66021-4 0 06606 2 16969 098.6107 307.1960 0011408 262.8194 097.1675 14.27482290303455 NOAA-11 1 19531U 88089A 11278.86931801 .00000260 00000-0 15669-3 0 06565 2 19531 098.7484 004.2177 0010429 231.5882 128.4382 14.14927310188408 NOAA-12 1 21263U 91032A 11278.97040864 -.00000164 00000-0 -50432-4 0 01742 2 21263 098.7484 296.6061 0013047 219.7384 140.2841 14.25441470060193 MET-3/5 1 21655U 91056A 11279.80754126 .00000051 00000-0 10000-3 0 2266 2 21655 082.5596 331.9141 0012236 235.2639 124.7370 13.17032123968417 MET-2/21 1 22782U 93055A 11279.83504695 .00000129 00000-0 10341-3 0 2226 2 22782 082.5467 234.2890 0023418 142.4046 217.8785 13.83663395913998 OKEAN-4 1 23317U 94066A 11279.88941112 .00001178 00000-0 14070-3 0 6860 2 23317 082.5372 268.8220 0023704 108.3843 251.9957 14.83190361917108 NOAA-14 1 23455U 94089A 11278.93138156 .00000052 00000-0 50685-4 0 06491 2 23455 098.8461 000.4333 0009072 330.6151 029.4506 14.13835759864726 NOAA-15 1 25338U 98030A 11278.96945256 .00000172 00000-0 92115-4 0 09741 2 25338 098.6679 263.6576 0011421 127.0069 233.2137 14.24958061696504 RESURS 1 25394U 98043A 11278.96698577 .00000060 00000-0 43840-4 0 09138 2 25394 098.3059 275.9196 0000528 297.0250 063.0877 14.24242906688072 FENGYUN1 1 25730U 99025A 11278.89985429 .00001649 00000-0 97672-3 0 4398 2 25730 098.8256 237.7146 0025227 007.6975 352.4576 14.08859782638651 OKEAN-0 1 25860U 99039A 11279.91218288 .00000631 00000-0 10371-3 0 4316 2 25860 097.8985 243.3729 0001408 047.8419 312.2909 14.73861285657116 NOAA-16 1 26536U 00055A 11278.56979307 .00000349 00000-0 21345-3 0 04558 2 26536 099.1313 311.3068 0011442 083.6432 276.6041 14.12651330568944 NOAA-17 1 27453U 02032A 11278.82001823 .00000123 00000-0 70925-4 0 04427 2 27453 098.3687 313.3927 0011670 180.7790 179.3350 14.24320976482403 NOAA-18 1 28654U 05018A 11278.68193046 .00000056 00000-0 55518-4 0 09196 2 28654 099.0094 230.1646 0014539 150.5574 209.6409 14.11522185328518 NOAA-19 1 33591U 09005A 11278.70365229 .00000006 00000-0 27293-4 0 01106 2 33591 098.8353 217.0384 0014778 026.7280 333.4645 14.11211818136978 HUBBLE 1 20580U 90037B 11278.65948814 .00002055 00000-0 14217-3 0 08458 2 20580 028.4709 014.7171 0003450 211.7045 148.3349 15.01579291976273 ISS 1 25544U 98067A 11279.69314115 .00020530 00000-0 24380-3 0 1914 2 25544 051.6407 319.4095 0016293 296.1117 063.8721 15.60333571142383 CO-58 1 28895U 05043F 11278.87355350 .00000650 00000-0 14391-3 0 09935 2 28895 097.9484 150.8836 0016936 231.0251 128.9454 14.60201301316398 FALCON 1 30776U 07006E 11278.77553232 .00004731 00000-0 32822-3 0 02010 2 30776 035.4334 034.3595 0002323 326.5666 033.4904 15.05130374251718 MAST 1 31126U 07012K 11278.98462401 .00000575 00000-0 13936-3 0 02812 2 31126 097.8881 299.9202 0093969 185.2530 174.7691 14.53822589237182 CAPE1 1 31130U 07012P 11278.93557698 .00000631 00000-0 15491-3 0 02906 2 31130 097.8961 296.4867 0101704 196.8297 162.9529 14.52489510236719 COMPASS 1 32787U 08021E 11279.84400412 .00002127 00000-0 26959-3 0 1102 2 32787 097.8372 341.5242 0015779 167.5244 192.6345 14.82703293186109 AAUSAT2 1 32788U 08021F 11278.64599871 .00002251 00000-0 28357-3 0 01010 2 32788 097.8354 340.6095 0015274 172.8109 187.3317 14.82903829185943 DO-64 1 32789U 08021G 11278.68316806 .00004294 00000-0 52682-3 0 01174 2 32789 097.8459 341.8758 0015497 170.5394 189.6127 14.83539348185965 CO-66 1 32791U 08021J 11279.21031779 .00002205 00000-0 28157-3 0 1035 2 32791 097.8362 340.8045 0016223 169.2754 190.8859 14.82347001185959 RS-30 1 32953U 08025A 11279.54404158 .00000010 00000-0 00000 0 0 1440 2 32953 082.4962 093.4905 0019208 141.6617 218.5830 12.43015561152925 TACSAT-3 1 35001U 09028A 11278.94860714 .00045732 00000-0 69114-3 0 07236 2 35001 040.4512 218.3214 0019274 312.0110 047.9100 15.53655814134281 PHARMSAT 1 35002U 09028B 11278.96928308 .00034207 00000-0 54457-3 0 06703 2 35002 040.4676 216.8701 0021403 321.9115 038.0202 15.52269396134300 HAWKSAT1 1 35003U 09028C 11278.76493853 .05638703 71200-5 11831-2 0 08211 2 35003 040.4370 161.0594 0006849 275.9761 084.3784 16.29831142134897 CP6 1 35004U 09028D 11247.64656856 .16152067 73217-5 10011-2 0 7842 2 35004 040.4403 342.9642 0002956 038.0069 322.2231 16.41039951130139 METEOR-M 1 35865U 09049A 11279.68967919 .00000177 00000-0 10000-3 0 7902 2 35865 098.6929 333.3003 0003319 066.1169 294.0315 14.21843384106438 RS-38 1 35869U 09049E 11279.81654644 .00000177 00000-0 10000-3 0 7662 2 35869 098.6904 333.4540 0005397 069.1908 290.9843 14.22024977106468 ARISSAT1 1 37772U 98067CK 11279.57881454 .00079209 00000-0 74635-3 0 1940 2 37772 051.6389 319.0469 0009281 307.3584 212.4737 15.66323243 9899 /EX